[[{"header":{"parameterUnit":"m.s-1","parameterCategory":1,"la1":30.2991,"la2":30.254,"lo1":-89.0895,"lo2":-89.0444,"dy":0.0017,"dx":0.0017,"nx":28,"ny":28,"refTime":"2024-04-23T09:00:00:Z","depth":0,"parameterNumber":2,"parameterNumberName":"U-component_of_WINDS"},"data":[0,0,0,0,0,0,0,0,0,0,0,0,0,0,0,0,0,0,0,0,0,0,0,0,0,0,0,0,0,0,0,0,0,0,0,0,0,0,0,0,0,0,0,0,0,0,0,0,0,0,0,0,0,0,0,0,0,0,-0.1431,-0.143,0,-0.1298,-0.1296,-0.1295,-0.1228,-0.1228,-0.1228,-0.1228,-0.109,-0.1086,-0.1082,0,0,0,0,0,0,0,0,0,0,0,0,0,-0.1629,-0.1626,-0.1431,-0.143,-0.1428,-0.1298,-0.1296,-0.1294,-0.1228,-0.1228,-0.1228,-0.1228,-0.1091,-0.1086,-0.1082,0,0,0,0,0,0,0,0,0,0,0,0,0,-0.1524,-0.1625,-0.1432,-0.138,-0.1374,-0.1298,-0.1296,-0.1294,-0.1228,-0.1228,-0.1228,-0.1228,-0.1092,-0.1087,-0.1081,-0.1047,0,0,-0.1064,-0.1062,0,0,0,0,0,0,0,0,-0.153,-0.1517,-0.1389,-0.1383,-0.1376,-0.128,-0.1315,-0.1211,-0.1228,-0.1283,-0.1228,-0.1228,-0.1153,-0.1142,-0.1117,-0.1041,-0.1035,-0.1064,-0.1061,-0.1058,-0.1057,0,0,0,0,0,0,0,-0.1538,-0.1522,-0.1378,-0.1387,-0.1379,-0.1363,-0.1348,-0.1295,-0.122,-0.1279,-0.1274,-0.1259,-0.1149,-0.1123,-0.1113,-0.1033,-0.1064,-0.1059,-0.1056,-0.1054,-0.0923,-0.0923,0,0,0,0,0,0,-0.1554,-0.1529,-0.1383,-0.1374,-0.1455,-0.1359,-0.1342,-0.1311,-0.122,-0.1206,-0.1259,-0.1256,-0.1132,-0.112,-0.1108,-0.1063,-0.1058,-0.1053,-0.105,-0.0923,-0.0923,-0.0923,0,0,0,0,0,0,-0.1558,-0.1541,-0.1388,-0.145,-0.1429,-0.1356,-0.1321,-0.1308,-0.1281,-0.1205,-0.1191,-0.1245,-0.1132,-0.1116,-0.1063,-0.1057,-0.1051,-0.1046,-0.0923,-0.0923,-0.0923,-0.0972,0,0,0,0,0,0,-0.1564,-0.1543,-0.1529,-0.145,-0.1426,-0.1346,-0.132,-0.1305,-0.1272,-0.1267,-0.1189,-0.1176,-0.113,-0.1072,-0.1058,-0.1049,-0.1041,-0.0924,-0.0923,-0.0923,-0.097,-0.0973,-0.0976,0,0,0,0,0,-0.1571,-0.1548,-0.1529,-0.1512,-0.1408,-0.1345,-0.1332,-0.128,-0.1272,-0.1257,-0.1209,-0.1178,-0.106,-0.1067,-0.1051,-0.104,-0.0924,-0.0923,-0.0923,-0.0969,-0.0973,-0.0976,0,0,0,0,0,0,-0.1627,-0.1536,-0.1514,-0.1465,-0.1414,-0.1334,-0.1314,-0.1285,-0.1235,-0.1232,-0.117,-0.1153,-0.1106,-0.1068,-0.1077,-0.1003,-0.0989,-0.0986,-0.103,-0.1032,-0.1035,-0.1045,-0.1037,0,0,0,0,0,-0.1633,-0.1591,-0.1514,-0.1477,-0.1453,-0.1389,-0.1359,-0.1325,-0.1268,-0.1246,-0.1193,-0.114,-0.1091,-0.106,-0.101,-0.0965,-0.0947,-0.095,-0.0953,-0.0955,-0.0952,-0.0927,-0.0927,-0.0922,-0.0922,-0.0922,0,0,-0.1646,-0.1592,-0.1568,-0.1487,-0.1443,-0.14,-0.137,-0.1326,-0.1293,-0.1239,-0.1186,-0.1146,-0.1082,-0.1034,-0.101,-0.1,-0.095,-0.0955,-0.0957,-0.0953,-0.0926,-0.0927,-0.0927,-0.0922,-0.0922,-0.0922,0,0,-0.1647,-0.1602,-0.1567,-0.1524,-0.1458,-0.1416,-0.1408,-0.1333,-0.1305,-0.1252,-0.121,-0.1171,-0.1087,-0.1044,-0.1011,-0.0999,-0.0969,-0.0984,-0.0998,-0.0973,-0.0974,-0.0974,-0.0969,-0.0969,-0.0982,-0.0982,-0.0982,0,-0.1671,-0.1605,-0.1552,-0.1511,-0.1477,-0.1427,-0.1391,-0.1352,-0.1273,-0.1251,-0.1242,-0.1138,-0.1091,-0.1032,-0.1029,-0.1004,-0.0993,-0.0992,-0.0978,-0.0977,-0.0977,-0.0972,-0.0971,-0.0984,-0.0984,-0.0984,-0.0984,0,-0.1638,-0.1593,-0.1573,-0.1499,-0.1463,-0.1425,-0.1366,-0.1336,-0.1305,-0.1264,-0.121,-0.1153,-0.1092,-0.1076,-0.1044,-0.1012,-0.1009,-0.099,-0.0974,-0.098,-0.0975,-0.0973,-0.0988,-0.0987,-0.0986,-0.0986,0,0,-0.1669,-0.1568,-0.1562,-0.1528,-0.1453,-0.1417,-0.1377,-0.1318,-0.1293,-0.1242,-0.1206,-0.1138,-0.1121,-0.1083,-0.1047,-0.1026,-0.102,-0.1009,-0.1007,-0.1013,-0.0982,-0.0997,-0.0995,-0.1001,-0.1,-0.1,-0.0988,0,-0.1659,-0.1585,-0.1537,-0.1482,-0.144,-0.1394,-0.1359,-0.1309,-0.127,-0.1229,-0.1185,-0.1138,-0.1119,-0.1096,-0.1073,-0.1026,-0.1013,-0.1026,-0.0967,-0.0966,-0.0984,-0.0992,-0.1007,-0.0998,-0.0985,-0.0985,-0.0984,0,-0.1638,-0.1589,-0.153,-0.1461,-0.1441,-0.1411,-0.1353,-0.1315,-0.1258,-0.1231,-0.1191,-0.1154,-0.111,-0.11,-0.1039,-0.1049,-0.1022,-0.0995,-0.0994,-0.0986,-0.0975,-0.0984,-0.0994,-0.0993,-0.098,-0.0981,-0.0981,0,-0.1666,-0.1585,-0.1539,-0.1512,-0.1431,-0.141,-0.1375,-0.1319,-0.1287,-0.1237,-0.1216,-0.1161,-0.1131,-0.109,-0.104,-0.1037,-0.0984,-0.0969,-0.0961,-0.0962,-0.095,-0.0952,-0.0956,-0.0935,-0.0935,-0.0935,-0.0935,0,-0.166,-0.1626,-0.1551,-0.1523,-0.1484,-0.143,-0.1392,-0.1353,-0.1304,-0.1267,-0.1224,-0.1191,-0.1127,-0.1086,-0.1047,-0.1003,-0.0989,-0.0967,-0.0956,-0.097,-0.0973,-0.0951,-0.095,-0.0934,-0.0934,-0.0934,-0.0934,0,-0.1685,-0.1633,-0.1581,-0.1508,-0.1489,-0.1464,-0.1402,-0.1373,-0.1333,-0.1287,-0.1273,-0.121,-0.116,-0.1106,-0.1038,-0.1012,-0.0969,-0.0955,-0.0988,-0.0983,-0.0977,-0.0978,-0.0967,-0.0963,-0.0945,-0.0945,-0.0945,0,-0.1684,-0.1657,-0.1582,-0.1555,-0.1522,-0.1478,-0.1446,-0.1392,-0.1361,-0.1295,-0.1274,-0.1221,-0.1176,-0.1098,-0.1046,-0.0994,-0.0978,-0.0977,-0.0969,-0.0984,-0.0978,-0.098,-0.0977,-0.098,-0.098,-0.098,-0.0981,0,-0.1688,-0.1665,-0.162,-0.1567,-0.153,-0.1485,-0.1439,-0.1419,-0.1356,-0.1323,-0.1272,-0.1237,-0.1168,-0.1116,-0.1058,-0.1022,-0.0991,-0.0984,-0.0979,-0.0992,-0.1013,-0.1002,-0.0995,-0.0984,-0.0984,-0.0983,-0.0983,-0.0983,-0.17,-0.1674,-0.1618,-0.157,-0.153,-0.1488,-0.1458,-0.1414,-0.1371,-0.1311,-0.1282,-0.1231,-0.1176,-0.1095,-0.106,-0.102,-0.101,-0.1004,-0.1002,-0.1001,-0.1004,-0.1021,-0.1009,-0.1009,-0.1009,-0.1009,-0.1009,0,-0.1702,-0.1664,-0.162,-0.1557,-0.152,-0.1496,-0.1444,-0.1414,-0.137,-0.1322,-0.1279,-0.1221,-0.1171,-0.1115,-0.1062,-0.104,-0.1025,-0.1028,-0.1029,-0.1021,-0.1016,-0.1025,-0.1042,-0.1042,-0.1042,-0.1042,-0.1042,-0.1042,-0.1698,-0.1653,-0.1623,-0.1558,-0.1521,-0.1471,-0.1443,-0.1405,-0.1366,-0.1304,-0.1262,-0.1227,-0.1176,-0.1119,-0.1073,-0.1057,-0.104,-0.1047,-0.1028,-0.1024,-0.1021,-0.1019,-0.1027,-0.1044,-0.1044,-0.1037,-0.1037,-0.1037]},{"header":{"parameterUnit":"m.s-1","parameterCategory":1,"la1":30.2991,"la2":30.254,"lo1":-89.0895,"lo2":-89.0444,"dy":0.0017,"dx":0.0017,"nx":28,"ny":28,"refTime":"2024-04-23T09:00:00:Z","depth":0,"parameterNumber":3,"parameterNumberName":"V-component_of_WINDS"},"data":[0,0,0,0,0,0,0,0,0,0,0,0,0,0,0,0,0,0,0,0,0,0,0,0,0,0,0,0,0,0,0,0,0,0,0,0,0,0,0,0,0,0,0,0,0,0,0,0,0,0,0,0,0,0,0,0,0,0,3.0827,3.0826,0,3.0774,3.0774,3.0773,3.0806,3.0807,3.0809,3.081,3.0748,3.0745,3.0742,0,0,0,0,0,0,0,0,0,0,0,0,0,3.0948,3.0946,3.0827,3.0826,3.0826,3.0774,3.0774,3.0773,3.0805,3.0807,3.0809,3.0811,3.0749,3.0745,3.0742,0,0,0,0,0,0,0,0,0,0,0,0,0,3.0895,3.0945,3.0827,3.0836,3.0836,3.0774,3.0774,3.0773,3.0805,3.0807,3.081,3.0812,3.075,3.0746,3.0741,3.0665,0,0,3.0727,3.0725,0,0,0,0,0,0,0,0,3.0898,3.0891,3.0835,3.0835,3.0835,3.0799,3.0794,3.0736,3.0804,3.0816,3.081,3.0813,3.0762,3.0757,3.0742,3.0662,3.066,3.0726,3.0724,3.0721,3.072,0,0,0,0,0,0,0,3.0902,3.0893,3.0806,3.0834,3.0834,3.084,3.0835,3.0783,3.0777,3.0816,3.0818,3.0812,3.0763,3.0746,3.074,3.0659,3.0726,3.0722,3.0719,3.0718,3.0513,3.0511,0,0,0,0,0,0,3.0906,3.0896,3.0808,3.0804,3.0874,3.0836,3.083,3.0808,3.0777,3.0775,3.081,3.0813,3.0753,3.0746,3.0738,3.0647,3.0722,3.0717,3.0714,3.0516,3.0513,3.051,0,0,0,0,0,0,3.0908,3.0898,3.081,3.0851,3.084,3.0831,3.0806,3.0806,3.0789,3.0773,3.0771,3.0794,3.0754,3.0745,3.0684,3.0645,3.0715,3.0711,3.0519,3.0515,3.0511,3.0464,0,0,0,0,0,0,3.0912,3.0899,3.0871,3.085,3.0838,3.0758,3.0804,3.0803,3.0782,3.0786,3.0758,3.0755,3.0756,3.069,3.0679,3.064,3.0707,3.0522,3.0517,3.0513,3.0469,3.0459,3.045,0,0,0,0,0,3.0916,3.0858,3.087,3.0859,3.0804,3.0756,3.0748,3.0752,3.0779,3.075,3.074,3.0756,3.0652,3.0684,3.0671,3.063,3.0525,3.0519,3.0513,3.0473,3.046,3.045,0,0,0,0,0,0,3.0872,3.0856,3.0868,3.0803,3.0781,3.0761,3.0725,3.0739,3.0707,3.0712,3.0715,3.0709,3.0645,3.0631,3.0668,3.0555,3.0592,3.0583,3.0566,3.0554,3.0545,3.0549,3.0703,0,0,0,0,0,3.0856,3.0821,3.0807,3.075,3.0739,3.0734,3.0713,3.0718,3.0694,3.0684,3.0669,3.0643,3.0605,3.0579,3.0542,3.0467,3.046,3.0433,3.0424,3.0416,3.0408,3.0366,3.0353,3.0491,3.0491,3.0491,0,0,3.082,3.0806,3.0783,3.0741,3.0725,3.0685,3.0726,3.0683,3.0653,3.0677,3.0618,3.0607,3.0578,3.0509,3.0478,3.0496,3.0369,3.0409,3.0403,3.0398,3.0359,3.0345,3.0334,3.0487,3.0487,3.0488,0,0,3.0734,3.0721,3.0673,3.0656,3.0631,3.0629,3.0617,3.0596,3.059,3.0532,3.0549,3.0512,3.0446,3.0424,3.0405,3.0311,3.0325,3.0299,3.025,3.0209,3.0198,3.0189,3.0154,3.0142,3.0291,3.0291,3.0291,0,3.0692,3.0636,3.0645,3.0601,3.0581,3.0604,3.0553,3.0535,3.0499,3.0483,3.0505,3.0422,3.0404,3.033,3.0308,3.0292,3.0276,3.0302,3.02,3.019,3.0181,3.0148,3.0135,3.0288,3.0289,3.0289,3.0289,0,3.0584,3.0545,3.0508,3.0476,3.0451,3.0404,3.0403,3.0377,3.0384,3.0379,3.0318,3.0298,3.0258,3.0241,3.0246,3.0167,3.0179,3.02,3.0237,3.0165,3.0134,3.0121,3.0284,3.0285,3.0286,3.0287,0,0,3.0468,3.0443,3.0428,3.0414,3.0389,3.0357,3.031,3.0273,3.025,3.0224,3.0183,3.0127,3.0146,3.0124,3.0127,3.0092,3.0017,3.0117,3.0116,3.0098,2.9927,2.9911,2.9896,3.0027,3.0025,3.0023,2.9929,0,3.038,3.0301,3.0308,3.0231,3.0194,3.0216,3.0174,3.0153,3.0146,3.0112,3.0104,3.0063,3.0093,3.0079,3.0045,3.0034,2.9983,3.0041,2.9986,2.9984,2.9992,2.988,2.9863,2.9775,2.9917,2.9915,2.9914,0,3.0267,3.024,3.0161,3.0141,3.0126,3.0089,3.0055,3.0023,2.9999,2.9996,2.9972,2.9981,2.9931,2.9971,2.99,2.994,2.9918,2.9909,2.9905,2.9899,2.9943,2.9869,2.9748,2.9734,2.9895,2.9896,2.9898,0,3.0189,3.0132,3.0077,3.0064,3.0041,3.0014,3.0002,2.9981,2.9958,2.9928,2.9913,2.9876,2.9855,2.9826,2.9824,2.9854,2.9752,2.9792,2.9747,2.9747,2.9723,2.9724,2.9595,2.9711,2.9711,2.9712,2.9712,0,3.0089,3.0039,3.0042,3.0008,2.9952,2.996,2.9903,2.9894,2.9875,2.9837,2.9853,2.9817,2.9818,2.9781,2.9779,2.972,2.9711,2.9706,2.9705,2.9703,2.9704,2.9688,2.9693,2.9708,2.9709,2.971,2.971,0,2.9991,2.9992,2.9933,2.9917,2.9911,2.987,2.9855,2.9821,2.9817,2.977,2.9759,2.975,2.9707,2.9704,2.9653,2.9652,2.958,2.9587,2.9589,2.9589,2.9544,2.9547,2.9398,2.9378,2.9509,2.9508,2.9507,0,2.9927,2.9889,2.9869,2.9847,2.9835,2.9798,2.9776,2.9781,2.9756,2.9726,2.9695,2.9655,2.9623,2.9552,2.954,2.9501,2.9506,2.9457,2.95,2.9499,2.9504,2.9506,2.9501,2.9448,2.9446,2.9445,2.9444,0,2.9812,2.9814,2.9783,2.9751,2.9725,2.9699,2.9676,2.9656,2.9658,2.9629,2.9587,2.9562,2.9512,2.947,2.9432,2.9417,2.943,2.9431,2.9418,2.9415,2.9417,2.9414,2.9564,2.9434,2.9435,2.9435,2.9436,2.9436,2.9728,2.9696,2.9677,2.9641,2.9624,2.9602,2.957,2.9562,2.9528,2.9489,2.9494,2.9446,2.9422,2.9373,2.9355,2.9317,2.9333,2.9314,2.9309,2.9304,2.9299,2.9425,2.931,2.931,2.931,2.931,2.9311,0,2.9613,2.9602,2.9569,2.9537,2.9508,2.9526,2.9501,2.9475,2.9434,2.9412,2.938,2.9331,2.9291,2.9276,2.9237,2.9208,2.9213,2.9197,2.9199,2.9195,2.9288,2.9302,2.9194,2.9194,2.9194,2.9194,2.9194,2.9194,2.9549,2.9495,2.9495,2.9432,2.9421,2.9378,2.9361,2.934,2.9322,2.9267,2.9235,2.9227,2.9207,2.9166,2.9129,2.9126,2.911,2.9091,2.909,2.9177,2.9188,2.9199,2.9213,2.9088,2.9088,2.9,2.9,2.8999]}]]